This is the latest recevied weather packets stored in our database for station/object W5ZYX. If no packets are shown the sender has not sent any weather packets the latest 10 day(s).
| Time | Temp. | Humidity | Pressure | Rain* | Wind** | Luminosity | Snow |
|---|---|---|---|---|---|---|---|
| 1778086535 | 20° C | 87% | 1013.3 hPa | 0 mm | - | - | - |
| 1778086236 | 20.56° C | 85% | 1013.3 hPa | 0 mm | - | - | - |
| 1778085951 | 21.11° C | 84% | 1013.2 hPa | 0 mm | - | - | - |
| 1778085639 | 22.78° C | 81% | 1012.9 hPa | 0 mm | - | - | - |
| 1778085335 | 25° C | 79% | 1012.8 hPa | 0 mm | - | - | - |
| 1778085058 | 26.11° C | 85% | 1012.5 hPa | 0 mm | - | - | - |
| 1778084738 | 26.11° C | 85% | 1012.3 hPa | 0 mm | - | - | - |
| 1778084441 | 26.67° C | 86% | 1012.3 hPa | 0 mm | - | - | - |
| 1778084146 | 26.11° C | 86% | 1012.2 hPa | 0 mm | - | - | - |
| 1778083841 | 26.11° C | 85% | 1012.2 hPa | 0 mm | - | - | - |
| 1778083539 | 26.11° C | 86% | 1012 hPa | 0 mm | - | - | - |
| 1778083253 | 26.11° C | 86% | 1011.7 hPa | 0 mm | - | - | - |
| 1778082940 | 26.11° C | 87% | 1011.5 hPa | 0 mm | - | - | - |
| 1778082640 | 25.56° C | 87% | 1011.4 hPa | 0 mm | - | - | - |
| 1778082368 | 25.56° C | 87% | 1011.2 hPa | 0 mm | - | - | - |
| 1778082040 | 25.56° C | 88% | 1011.5 hPa | 0 mm | - | - | - |
| 1778081736 | 25.56° C | 87% | 1011.4 hPa | 0 mm | - | - | - |
| 1778081446 | 25.56° C | 88% | 1011.5 hPa | 0 mm | - | - | - |
| 1778081136 | 25.56° C | 88% | 1011.5 hPa | 0 mm | - | - | - |
| 1778080835 | 25° C | 88% | 1011.4 hPa | 0 mm | - | - | - |
| 1778080552 | 25° C | 88% | 1011.4 hPa | 0 mm | - | - | - |
| 1778080236 | 25° C | 88% | 1011.3 hPa | 0 mm | - | - | - |
| 1778079936 | 25° C | 89% | 1011.3 hPa | 0 mm | - | - | - |
| 1778079644 | 25° C | 88% | 1011.4 hPa | 0 mm | - | - | - |
| 1778079336 | 25° C | 88% | 1011.5 hPa | 0 mm | - | - | - |
* Rain latest hour (hover to see other rain measurements)
** Current wind speed in m/s (hover to see current wind gust speed)